Retour au catalogue

STARLINK-2672

ActifCommunicationsVLEO
NORAD 48650·PAYLOAD·🇺🇸 United States

Lancé May 26, 2021 depuis Cape Canaveral Space Force Station

Loading…

Prochains Passages (prochaines 24 heures)

TLE

FraisSource: CelesTrak SupGP

Époque: Sep 14, 2026, 21:30 UTC

1 48650C 21044N   26257.89631944 -.00008151  00000+0 -26206-3 0  2572
2 48650  53.1582 313.4235 0001060  86.0002 248.6711 15.31712808    19

Suivez STARLINK-2672 en temps réel avec AllMySat

Download on the App Store